Location: Tierra del Sol
(32.6128°N, 116.3319°W)
Time: 12:35:54
(UTC-07:00)

Envisat - Visible Passes

Search period start: 25 June 2018 00:00
Search period end: 05 July 2018 00:00
Orbit: 764 x 766 km, 98.2° (Epoch: 25 June)

Date Brightness Start Highest point End Pass type
(mag) Time Alt. Az. Time Alt. Az. Time Alt. Az.
26 Jun 5.6 21:17:50 10° SW 21:20:56 16° W 21:24:04 10° NW visible
27 Jun 4.3 20:39:17 10° SSW 20:44:00 39° W 20:48:45 10° NNW visible
29 Jun 5.3 21:05:54 10° SW 21:09:42 21° W 21:13:30 10° NW visible
30 Jun 3.9 20:27:54 10° S 20:32:49 51° W 20:37:46 10° NNW visible
01 Jul 5.9 21:34:19 10° WSW 21:35:29 11° W 21:36:39 10° WNW visible
02 Jul 5.0 20:54:12 10° SSW 20:58:28 27° W 21:02:46 10° NW visible
04 Jul 5.6 21:21:29 10° SW 21:24:13 15° W 21:26:58 10° WNW visible
